Location: Chippewa Lake
(41.0698°N, 81.9010°W)
Time: 21:10:37
(UTC+00:00)

SeaSat 1 - Pass Details

Date: 09 May 2021
Orbit: 744 x 747 km, 108.0° (Epoch: 17 June)

Event Time Altitude Azimuth Distance (km) Brightness Sun altitude
Rises 06:10:50 0° 17° (NNE) 3,198 6.9 -30.5°
Reaches altitude 10° 06:13:15 10° 9° (N) 2,271 5.8 -30.4°
Enters shadow 06:17:24 35° 313° (NW) 1,192 3.6 -30.2°
